Regional Weather Roundup
Issued by NWS

Home | Current Version | Previous Version | Graphics & Text | Print | Product List | Glossary On
Versions: 1 2 3 4 5 6 7 8 9 10 11 12 13 14 15 16 17 18 19 20 21 22 23 24 25 26 27 28 29 30 31 32 33 34 35 36 37 38 39 40 41 42 43 44 45 46 47 48 49 50
000
ASUS43 KLMK 202110
RWRKY
KENTUCKY REGIONAL WEATHER ROUNDUP
NATIONAL WEATHER SERVICE LOUISVILLE KY
500 PM EDT SUN AUG 20 2017

NOTE "FAIR" INDICATES FEW OR NO CLOUDS BELOW 12,000 FEET
WITH NO SIGNIFICANT WEATHER AND/OR OBSTRUCTIONS TO VISIBILITY.

KYZ001>023-026-027-061>063-070>075-202200-
WESTERN AND SOUTH CENTRAL KENTUCKY

CITY           SKY/WX    TMP DP  RH WIND       PRES   REMARKS
PADUCAH        CLOUDY    91  68  46 S6        30.02F HX  95
HENDERSON      CLOUDY    92  70  48 S8        30.01F HX  97
OWENSBORO      SUNNY     92  67  43 S9        30.03S HX  95
HOPKINSVILLE   SUNNY     92  66  41 SW7       30.05S HX  94
BOWLING GREEN  PTSUNNY   91  68  46 CALM      30.06S HX  95
GLASGOW        MOSUNNY   92  63  37 S5        30.07S HX  93
$$

KYZ024-025-028>034-038-045-046-053-202200-
NORTH CENTRAL KENTUCKY

CITY           SKY/WX    TMP DP  RH WIND       PRES   REMARKS
LOUISVILLE/SDF MOSUNNY   90  66  45 SW7       30.03F HX  92
LOUISVILLE/LOU MOSUNNY   91  69  48 SW9       30.04F HX  96
FORT KNOX      SUNNY     91  67  44 S8        30.04S HX  94
$$

KYZ035>037-039>044-047>052-055>060-089>105-202200-
NORTHEAST KENTUCKY

CITY           SKY/WX    TMP DP  RH WIND       PRES   REMARKS
LEXINGTON      MOSUNNY   89  65  44 VRB3      30.07F HX  91
COVINGTON      PTSUNNY   87  69  54 SW7       30.06F HX  91
FRANKFORT      MOSUNNY   89  64  43 VRB3      30.06S HX  90
$$

KYZ054-064>069-076>088-106>120-202200-
SOUTHEAST KENTUCKY

CITY           SKY/WX    TMP DP  RH WIND       PRES   REMARKS
JACKSON        SUNNY     87  68  52 CALM      30.11F HX  90
LONDON         SUNNY     87  58  37 CALM      30.11S
SOMERSET       MOSUNNY   88  55  33 CALM      30.10F
MIDDLESBORO    MOSUNNY   87  67  50 CALM      30.11S HX  90
MONTICELLO     CLEAR     90  64  42 VRB7      30.10F HX  91
$$




USA.gov is the U.S. government's official web portal to all federal, state and local government web resources and services.